<?xml version="1.0" encoding="UTF-8" standalone="no" ?>
<gpx xmlns="http://www.topografix.com/GPX/1/1" xmlns:xsi="http://www.w3.org/2001/XMLSchema-instance" xsi:schemaLocation="http://www.topografix.com/GPX/1/1 http://www.topografix.com/GPX/1/1/gpx.xsd" version="1.1" creator="VisuGPX - https://www.visugpx.com">
  <metadata>
    <name>LE VIEUX-MARCHE</name>
    <desc><![CDATA[Départ du Bourg du VIEUX-MARCHE. Parking en face de l\'Eglise]]></desc>
  </metadata>
  <trk>
    <name><![CDATA[LE VIEUX-MARCHE_1]]></name>
    <trkseg>
      <trkpt lat="48.60706" lon="-3.44905">
        <ele>122</ele>
        <time>2012-06-14T10:48:11Z</time>
      </trkpt>
      <trkpt lat="48.6066" lon="-3.4485">
        <ele>123</ele>
        <time>2012-06-14T10:48:11Z</time>
      </trkpt>
      <trkpt lat="48.60621" lon="-3.44853">
        <ele>123</ele>
        <time>2012-06-14T10:48:11Z</time>
      </trkpt>
      <trkpt lat="48.60594" lon="-3.44881">
        <ele>123.9</ele>
        <time>2012-06-14T10:48:11Z</time>
      </trkpt>
      <trkpt lat="48.60564" lon="-3.44919">
        <ele>124.1</ele>
        <time>2012-06-14T10:48:11Z</time>
      </trkpt>
      <trkpt lat="48.6052" lon="-3.44951">
        <ele>124.7</ele>
        <time>2012-06-14T10:48:11Z</time>
      </trkpt>
      <trkpt lat="48.60482" lon="-3.44988">
        <ele>126.6</ele>
        <time>2012-06-14T10:48:11Z</time>
      </trkpt>
      <trkpt lat="48.60443" lon="-3.45029">
        <ele>128.1</ele>
        <time>2012-06-14T10:48:11Z</time>
      </trkpt>
      <trkpt lat="48.60395" lon="-3.45028">
        <ele>129</ele>
        <time>2012-06-14T10:48:11Z</time>
      </trkpt>
      <trkpt lat="48.60359" lon="-3.44999">
        <ele>129</ele>
        <time>2012-06-14T10:48:11Z</time>
      </trkpt>
      <trkpt lat="48.60313" lon="-3.45">
        <ele>130</ele>
        <time>2012-06-14T10:48:11Z</time>
      </trkpt>
      <trkpt lat="48.60272" lon="-3.45">
        <ele>131.2</ele>
        <time>2012-06-14T10:48:11Z</time>
      </trkpt>
      <trkpt lat="48.6023" lon="-3.45011">
        <ele>132</ele>
        <time>2012-06-14T10:48:11Z</time>
      </trkpt>
      <trkpt lat="48.60185" lon="-3.45001">
        <ele>132.4</ele>
        <time>2012-06-14T10:48:11Z</time>
      </trkpt>
      <trkpt lat="48.60147" lon="-3.44968">
        <ele>132.7</ele>
        <time>2012-06-14T10:48:11Z</time>
      </trkpt>
      <trkpt lat="48.60133" lon="-3.44999">
        <ele>133.2</ele>
        <time>2012-06-14T10:48:11Z</time>
      </trkpt>
      <trkpt lat="48.60148" lon="-3.45057">
        <ele>134</ele>
        <time>2012-06-14T10:48:11Z</time>
      </trkpt>
      <trkpt lat="48.60152" lon="-3.45127">
        <ele>135.6</ele>
        <time>2012-06-14T10:48:11Z</time>
      </trkpt>
      <trkpt lat="48.60128" lon="-3.45166">
        <ele>136</ele>
        <time>2012-06-14T10:48:11Z</time>
      </trkpt>
      <trkpt lat="48.60086" lon="-3.45146">
        <ele>136</ele>
        <time>2012-06-14T10:48:11Z</time>
      </trkpt>
      <trkpt lat="48.60054" lon="-3.45109">
        <ele>136</ele>
        <time>2012-06-14T10:48:11Z</time>
      </trkpt>
      <trkpt lat="48.60026" lon="-3.45054">
        <ele>135</ele>
        <time>2012-06-14T10:48:11Z</time>
      </trkpt>
      <trkpt lat="48.60002" lon="-3.45003">
        <ele>135</ele>
        <time>2012-06-14T10:48:11Z</time>
      </trkpt>
      <trkpt lat="48.59996" lon="-3.44941">
        <ele>134</ele>
        <time>2012-06-14T10:48:11Z</time>
      </trkpt>
      <trkpt lat="48.60001" lon="-3.44872">
        <ele>134</ele>
        <time>2012-06-14T10:48:11Z</time>
      </trkpt>
      <trkpt lat="48.60023" lon="-3.44817">
        <ele>133.2</ele>
        <time>2012-06-14T10:48:11Z</time>
      </trkpt>
      <trkpt lat="48.60064" lon="-3.4478">
        <ele>132.7</ele>
        <time>2012-06-14T10:48:11Z</time>
      </trkpt>
      <trkpt lat="48.60032" lon="-3.44758">
        <ele>133</ele>
        <time>2012-06-14T10:48:11Z</time>
      </trkpt>
      <trkpt lat="48.59988" lon="-3.44734">
        <ele>134</ele>
        <time>2012-06-14T10:48:11Z</time>
      </trkpt>
      <trkpt lat="48.59946" lon="-3.44718">
        <ele>134</ele>
        <time>2012-06-14T10:48:11Z</time>
      </trkpt>
      <trkpt lat="48.59901" lon="-3.44692">
        <ele>134</ele>
        <time>2012-06-14T10:48:11Z</time>
      </trkpt>
      <trkpt lat="48.59857" lon="-3.44679">
        <ele>134.6</ele>
        <time>2012-06-14T10:48:11Z</time>
      </trkpt>
      <trkpt lat="48.59813" lon="-3.44657">
        <ele>135.8</ele>
        <time>2012-06-14T10:48:11Z</time>
      </trkpt>
      <trkpt lat="48.5977" lon="-3.44638">
        <ele>137.3</ele>
        <time>2012-06-14T10:48:11Z</time>
      </trkpt>
      <trkpt lat="48.59727" lon="-3.44619">
        <ele>139.5</ele>
        <time>2012-06-14T10:48:11Z</time>
      </trkpt>
      <trkpt lat="48.59686" lon="-3.44592">
        <ele>141</ele>
        <time>2012-06-14T10:48:11Z</time>
      </trkpt>
      <trkpt lat="48.59645" lon="-3.44558">
        <ele>141.1</ele>
        <time>2012-06-14T10:48:11Z</time>
      </trkpt>
      <trkpt lat="48.59603" lon="-3.44524">
        <ele>140.5</ele>
        <time>2012-06-14T10:48:11Z</time>
      </trkpt>
      <trkpt lat="48.59559" lon="-3.44503">
        <ele>141.1</ele>
        <time>2012-06-14T10:48:11Z</time>
      </trkpt>
      <trkpt lat="48.59514" lon="-3.44508">
        <ele>140.8</ele>
        <time>2012-06-14T10:48:11Z</time>
      </trkpt>
      <trkpt lat="48.59472" lon="-3.44532">
        <ele>140.1</ele>
        <time>2012-06-14T10:48:11Z</time>
      </trkpt>
      <trkpt lat="48.59433" lon="-3.44567">
        <ele>139.5</ele>
        <time>2012-06-14T10:48:11Z</time>
      </trkpt>
      <trkpt lat="48.59391" lon="-3.44595">
        <ele>139</ele>
        <time>2012-06-14T10:48:11Z</time>
      </trkpt>
      <trkpt lat="48.59342" lon="-3.44594">
        <ele>138.3</ele>
        <time>2012-06-14T10:48:11Z</time>
      </trkpt>
      <trkpt lat="48.59297" lon="-3.4459">
        <ele>138</ele>
        <time>2012-06-14T10:48:11Z</time>
      </trkpt>
      <trkpt lat="48.59249" lon="-3.44585">
        <ele>138</ele>
        <time>2012-06-14T10:48:11Z</time>
      </trkpt>
      <trkpt lat="48.59201" lon="-3.44582">
        <ele>138.8</ele>
        <time>2012-06-14T10:48:11Z</time>
      </trkpt>
      <trkpt lat="48.59153" lon="-3.44581">
        <ele>140</ele>
        <time>2012-06-14T10:48:11Z</time>
      </trkpt>
      <trkpt lat="48.59106" lon="-3.44576">
        <ele>141.2</ele>
        <time>2012-06-14T10:48:11Z</time>
      </trkpt>
      <trkpt lat="48.59058" lon="-3.44573">
        <ele>142.6</ele>
        <time>2012-06-14T10:48:11Z</time>
      </trkpt>
      <trkpt lat="48.59012" lon="-3.4457">
        <ele>144.4</ele>
        <time>2012-06-14T10:48:11Z</time>
      </trkpt>
      <trkpt lat="48.58969" lon="-3.44569">
        <ele>146.1</ele>
        <time>2012-06-14T10:48:11Z</time>
      </trkpt>
      <trkpt lat="48.58927" lon="-3.44563">
        <ele>147.6</ele>
        <time>2012-06-14T10:48:11Z</time>
      </trkpt>
      <trkpt lat="48.58882" lon="-3.44566">
        <ele>149.2</ele>
        <time>2012-06-14T10:48:11Z</time>
      </trkpt>
      <trkpt lat="48.58837" lon="-3.44582">
        <ele>151.7</ele>
        <time>2012-06-14T10:48:11Z</time>
      </trkpt>
      <trkpt lat="48.58791" lon="-3.44592">
        <ele>153.9</ele>
        <time>2012-06-14T10:48:11Z</time>
      </trkpt>
      <trkpt lat="48.58746" lon="-3.4461">
        <ele>155</ele>
        <time>2012-06-14T10:48:11Z</time>
      </trkpt>
      <trkpt lat="48.58698" lon="-3.44606">
        <ele>155.9</ele>
        <time>2012-06-14T10:48:11Z</time>
      </trkpt>
      <trkpt lat="48.58654" lon="-3.44615">
        <ele>155.9</ele>
        <time>2012-06-14T10:48:11Z</time>
      </trkpt>
      <trkpt lat="48.58612" lon="-3.44614">
        <ele>155</ele>
        <time>2012-06-14T10:48:11Z</time>
      </trkpt>
      <trkpt lat="48.58565" lon="-3.44602">
        <ele>152.4</ele>
        <time>2012-06-14T10:48:11Z</time>
      </trkpt>
      <trkpt lat="48.58523" lon="-3.44567">
        <ele>148.7</ele>
        <time>2012-06-14T10:48:11Z</time>
      </trkpt>
      <trkpt lat="48.58483" lon="-3.44533">
        <ele>146.4</ele>
        <time>2012-06-14T10:48:11Z</time>
      </trkpt>
      <trkpt lat="48.58446" lon="-3.445">
        <ele>145.1</ele>
        <time>2012-06-14T10:48:11Z</time>
      </trkpt>
      <trkpt lat="48.58425" lon="-3.44484">
        <ele>143.7</ele>
        <time>2012-06-14T10:48:11Z</time>
      </trkpt>
      <trkpt lat="48.58386" lon="-3.44468">
        <ele>141.5</ele>
        <time>2012-06-14T10:48:11Z</time>
      </trkpt>
      <trkpt lat="48.58355" lon="-3.44517">
        <ele>139.4</ele>
        <time>2012-06-14T10:48:11Z</time>
      </trkpt>
      <trkpt lat="48.58316" lon="-3.44548">
        <ele>134.1</ele>
        <time>2012-06-14T10:48:11Z</time>
      </trkpt>
      <trkpt lat="48.58276" lon="-3.44518">
        <ele>129.4</ele>
        <time>2012-06-14T10:48:11Z</time>
      </trkpt>
      <trkpt lat="48.5824" lon="-3.44475">
        <ele>127.4</ele>
        <time>2012-06-14T10:48:11Z</time>
      </trkpt>
      <trkpt lat="48.58198" lon="-3.44448">
        <ele>124.3</ele>
        <time>2012-06-14T10:48:11Z</time>
      </trkpt>
      <trkpt lat="48.58151" lon="-3.44452">
        <ele>120.1</ele>
        <time>2012-06-14T10:48:11Z</time>
      </trkpt>
      <trkpt lat="48.58108" lon="-3.44464">
        <ele>113.7</ele>
        <time>2012-06-14T10:48:11Z</time>
      </trkpt>
      <trkpt lat="48.58063" lon="-3.44473">
        <ele>107.1</ele>
        <time>2012-06-14T10:48:11Z</time>
      </trkpt>
      <trkpt lat="48.58019" lon="-3.44454">
        <ele>103.7</ele>
        <time>2012-06-14T10:48:11Z</time>
      </trkpt>
      <trkpt lat="48.57982" lon="-3.44417">
        <ele>102.4</ele>
        <time>2012-06-14T10:48:11Z</time>
      </trkpt>
      <trkpt lat="48.57952" lon="-3.44369">
        <ele>98.9</ele>
        <time>2012-06-14T10:48:11Z</time>
      </trkpt>
      <trkpt lat="48.57953" lon="-3.44306">
        <ele>94</ele>
        <time>2012-06-14T10:48:11Z</time>
      </trkpt>
      <trkpt lat="48.57959" lon="-3.4427">
        <ele>96.5</ele>
        <time>2012-06-14T10:48:11Z</time>
      </trkpt>
      <trkpt lat="48.5799" lon="-3.44238">
        <ele>96</ele>
        <time>2012-06-14T10:48:11Z</time>
      </trkpt>
      <trkpt lat="48.58001" lon="-3.44191">
        <ele>96.8</ele>
        <time>2012-06-14T10:48:11Z</time>
      </trkpt>
      <trkpt lat="48.58016" lon="-3.44136">
        <ele>93.2</ele>
        <time>2012-06-14T10:48:11Z</time>
      </trkpt>
      <trkpt lat="48.58014" lon="-3.44075">
        <ele>90.1</ele>
        <time>2012-06-14T10:48:11Z</time>
      </trkpt>
      <trkpt lat="48.58031" lon="-3.44033">
        <ele>88.2</ele>
        <time>2012-06-14T10:48:11Z</time>
      </trkpt>
      <trkpt lat="48.5806" lon="-3.43991">
        <ele>87.5</ele>
        <time>2012-06-14T10:48:11Z</time>
      </trkpt>
      <trkpt lat="48.58083" lon="-3.43941">
        <ele>84.7</ele>
        <time>2012-06-14T10:48:11Z</time>
      </trkpt>
      <trkpt lat="48.581" lon="-3.43881">
        <ele>87.6</ele>
        <time>2012-06-14T10:48:11Z</time>
      </trkpt>
      <trkpt lat="48.58114" lon="-3.43834">
        <ele>86.9</ele>
        <time>2012-06-14T10:48:11Z</time>
      </trkpt>
      <trkpt lat="48.58123" lon="-3.4378">
        <ele>88</ele>
        <time>2012-06-14T10:48:11Z</time>
      </trkpt>
      <trkpt lat="48.58147" lon="-3.43735">
        <ele>82.8</ele>
        <time>2012-06-14T10:48:11Z</time>
      </trkpt>
      <trkpt lat="48.58177" lon="-3.43697">
        <ele>79.5</ele>
        <time>2012-06-14T10:48:11Z</time>
      </trkpt>
      <trkpt lat="48.5819" lon="-3.43631">
        <ele>78.4</ele>
        <time>2012-06-14T10:48:11Z</time>
      </trkpt>
      <trkpt lat="48.58207" lon="-3.43573">
        <ele>77.4</ele>
        <time>2012-06-14T10:48:11Z</time>
      </trkpt>
      <trkpt lat="48.58234" lon="-3.43524">
        <ele>78.3</ele>
        <time>2012-06-14T10:48:11Z</time>
      </trkpt>
      <trkpt lat="48.58259" lon="-3.43479">
        <ele>80.9</ele>
        <time>2012-06-14T10:48:11Z</time>
      </trkpt>
      <trkpt lat="48.58295" lon="-3.43469">
        <ele>74.6</ele>
        <time>2012-06-14T10:48:11Z</time>
      </trkpt>
      <trkpt lat="48.58333" lon="-3.4344">
        <ele>71.6</ele>
        <time>2012-06-14T10:48:11Z</time>
      </trkpt>
      <trkpt lat="48.58336" lon="-3.4339">
        <ele>74.6</ele>
        <time>2012-06-14T10:48:11Z</time>
      </trkpt>
      <trkpt lat="48.58328" lon="-3.43345">
        <ele>76</ele>
        <time>2012-06-14T10:48:11Z</time>
      </trkpt>
      <trkpt lat="48.58326" lon="-3.43277">
        <ele>67.4</ele>
        <time>2012-06-14T10:48:11Z</time>
      </trkpt>
      <trkpt lat="48.58344" lon="-3.43238">
        <ele>62.3</ele>
        <time>2012-06-14T10:48:11Z</time>
      </trkpt>
      <trkpt lat="48.58345" lon="-3.43233">
        <ele>61.9</ele>
        <time>2012-06-14T10:48:11Z</time>
      </trkpt>
      <trkpt lat="48.58344" lon="-3.43234">
        <ele>61.9</ele>
        <time>2012-06-14T10:48:11Z</time>
      </trkpt>
      <trkpt lat="48.58385" lon="-3.43215">
        <ele>62.1</ele>
        <time>2012-06-14T10:48:11Z</time>
      </trkpt>
      <trkpt lat="48.58426" lon="-3.43186">
        <ele>61.7</ele>
        <time>2012-06-14T10:48:11Z</time>
      </trkpt>
      <trkpt lat="48.58467" lon="-3.43167">
        <ele>63.3</ele>
        <time>2012-06-14T10:48:11Z</time>
      </trkpt>
      <trkpt lat="48.58509" lon="-3.43143">
        <ele>63.2</ele>
        <time>2012-06-14T10:48:11Z</time>
      </trkpt>
      <trkpt lat="48.58552" lon="-3.43145">
        <ele>62.2</ele>
        <time>2012-06-14T10:48:11Z</time>
      </trkpt>
      <trkpt lat="48.58594" lon="-3.43145">
        <ele>61.4</ele>
        <time>2012-06-14T10:48:11Z</time>
      </trkpt>
      <trkpt lat="48.58635" lon="-3.43159">
        <ele>65.7</ele>
        <time>2012-06-14T10:48:11Z</time>
      </trkpt>
      <trkpt lat="48.58676" lon="-3.43172">
        <ele>65.4</ele>
        <time>2012-06-14T10:48:11Z</time>
      </trkpt>
      <trkpt lat="48.58718" lon="-3.43181">
        <ele>63.7</ele>
        <time>2012-06-14T10:48:11Z</time>
      </trkpt>
      <trkpt lat="48.58749" lon="-3.43233">
        <ele>65.8</ele>
        <time>2012-06-14T10:48:11Z</time>
      </trkpt>
      <trkpt lat="48.58774" lon="-3.43297">
        <ele>69.9</ele>
        <time>2012-06-14T10:48:11Z</time>
      </trkpt>
      <trkpt lat="48.58803" lon="-3.43346">
        <ele>73.3</ele>
        <time>2012-06-14T10:48:11Z</time>
      </trkpt>
      <trkpt lat="48.58841" lon="-3.43383">
        <ele>74.6</ele>
        <time>2012-06-14T10:48:11Z</time>
      </trkpt>
      <trkpt lat="48.58874" lon="-3.43371">
        <ele>81.5</ele>
        <time>2012-06-14T10:48:11Z</time>
      </trkpt>
      <trkpt lat="48.58912" lon="-3.43354">
        <ele>85.9</ele>
        <time>2012-06-14T10:48:11Z</time>
      </trkpt>
      <trkpt lat="48.58953" lon="-3.43336">
        <ele>89.6</ele>
        <time>2012-06-14T10:48:11Z</time>
      </trkpt>
      <trkpt lat="48.58996" lon="-3.43329">
        <ele>92.6</ele>
        <time>2012-06-14T10:48:11Z</time>
      </trkpt>
      <trkpt lat="48.59038" lon="-3.43335">
        <ele>95.4</ele>
        <time>2012-06-14T10:48:11Z</time>
      </trkpt>
      <trkpt lat="48.59071" lon="-3.43385">
        <ele>97.5</ele>
        <time>2012-06-14T10:48:11Z</time>
      </trkpt>
      <trkpt lat="48.59098" lon="-3.43442">
        <ele>100</ele>
        <time>2012-06-14T10:48:11Z</time>
      </trkpt>
      <trkpt lat="48.59133" lon="-3.43486">
        <ele>104.1</ele>
        <time>2012-06-14T10:48:11Z</time>
      </trkpt>
      <trkpt lat="48.59162" lon="-3.43538">
        <ele>108</ele>
        <time>2012-06-14T10:48:11Z</time>
      </trkpt>
      <trkpt lat="48.59207" lon="-3.43558">
        <ele>113.4</ele>
        <time>2012-06-14T10:48:11Z</time>
      </trkpt>
      <trkpt lat="48.59245" lon="-3.43578">
        <ele>117.3</ele>
        <time>2012-06-14T10:48:11Z</time>
      </trkpt>
      <trkpt lat="48.59284" lon="-3.4361">
        <ele>122.6</ele>
        <time>2012-06-14T10:48:11Z</time>
      </trkpt>
      <trkpt lat="48.59321" lon="-3.4364">
        <ele>127.1</ele>
        <time>2012-06-14T10:48:11Z</time>
      </trkpt>
      <trkpt lat="48.59362" lon="-3.43665">
        <ele>130</ele>
        <time>2012-06-14T10:48:11Z</time>
      </trkpt>
      <trkpt lat="48.59404" lon="-3.43685">
        <ele>132.1</ele>
        <time>2012-06-14T10:48:11Z</time>
      </trkpt>
      <trkpt lat="48.59441" lon="-3.43711">
        <ele>134.2</ele>
        <time>2012-06-14T10:48:11Z</time>
      </trkpt>
      <trkpt lat="48.59473" lon="-3.43743">
        <ele>134.6</ele>
        <time>2012-06-14T10:48:11Z</time>
      </trkpt>
      <trkpt lat="48.59501" lon="-3.43788">
        <ele>132.4</ele>
        <time>2012-06-14T10:48:11Z</time>
      </trkpt>
      <trkpt lat="48.59536" lon="-3.43837">
        <ele>132.5</ele>
        <time>2012-06-14T10:48:11Z</time>
      </trkpt>
      <trkpt lat="48.59573" lon="-3.43866">
        <ele>134.1</ele>
        <time>2012-06-14T10:48:11Z</time>
      </trkpt>
      <trkpt lat="48.59609" lon="-3.43914">
        <ele>134.8</ele>
        <time>2012-06-14T10:48:11Z</time>
      </trkpt>
      <trkpt lat="48.59645" lon="-3.43953">
        <ele>136.2</ele>
        <time>2012-06-14T10:48:11Z</time>
      </trkpt>
      <trkpt lat="48.59685" lon="-3.43985">
        <ele>137.4</ele>
        <time>2012-06-14T10:48:11Z</time>
      </trkpt>
      <trkpt lat="48.59714" lon="-3.44033">
        <ele>137</ele>
        <time>2012-06-14T10:48:11Z</time>
      </trkpt>
      <trkpt lat="48.59749" lon="-3.44081">
        <ele>137</ele>
        <time>2012-06-14T10:48:11Z</time>
      </trkpt>
      <trkpt lat="48.59783" lon="-3.44127">
        <ele>138.2</ele>
        <time>2012-06-14T10:48:11Z</time>
      </trkpt>
      <trkpt lat="48.59817" lon="-3.4416">
        <ele>138.6</ele>
        <time>2012-06-14T10:48:11Z</time>
      </trkpt>
      <trkpt lat="48.59848" lon="-3.44203">
        <ele>138</ele>
        <time>2012-06-14T10:48:11Z</time>
      </trkpt>
      <trkpt lat="48.59883" lon="-3.44249">
        <ele>137</ele>
        <time>2012-06-14T10:48:11Z</time>
      </trkpt>
      <trkpt lat="48.59902" lon="-3.4431">
        <ele>136</ele>
        <time>2012-06-14T10:48:11Z</time>
      </trkpt>
      <trkpt lat="48.59915" lon="-3.44373">
        <ele>135.1</ele>
        <time>2012-06-14T10:48:11Z</time>
      </trkpt>
      <trkpt lat="48.59929" lon="-3.44436">
        <ele>135</ele>
        <time>2012-06-14T10:48:11Z</time>
      </trkpt>
      <trkpt lat="48.59949" lon="-3.44502">
        <ele>134.8</ele>
        <time>2012-06-14T10:48:11Z</time>
      </trkpt>
      <trkpt lat="48.59982" lon="-3.44552">
        <ele>134</ele>
        <time>2012-06-14T10:48:11Z</time>
      </trkpt>
      <trkpt lat="48.60011" lon="-3.446">
        <ele>133.8</ele>
        <time>2012-06-14T10:48:11Z</time>
      </trkpt>
      <trkpt lat="48.60042" lon="-3.44652">
        <ele>133</ele>
        <time>2012-06-14T10:48:11Z</time>
      </trkpt>
      <trkpt lat="48.60069" lon="-3.44707">
        <ele>132.5</ele>
        <time>2012-06-14T10:48:11Z</time>
      </trkpt>
      <trkpt lat="48.60105" lon="-3.44751">
        <ele>132</ele>
        <time>2012-06-14T10:48:11Z</time>
      </trkpt>
      <trkpt lat="48.60147" lon="-3.44778">
        <ele>131.7</ele>
        <time>2012-06-14T10:48:11Z</time>
      </trkpt>
      <trkpt lat="48.60193" lon="-3.44776">
        <ele>131</ele>
        <time>2012-06-14T10:48:11Z</time>
      </trkpt>
      <trkpt lat="48.60238" lon="-3.44783">
        <ele>130.4</ele>
        <time>2012-06-14T10:48:11Z</time>
      </trkpt>
      <trkpt lat="48.60281" lon="-3.44794">
        <ele>129.4</ele>
        <time>2012-06-14T10:48:11Z</time>
      </trkpt>
      <trkpt lat="48.60327" lon="-3.44798">
        <ele>128.4</ele>
        <time>2012-06-14T10:48:11Z</time>
      </trkpt>
      <trkpt lat="48.60374" lon="-3.44803">
        <ele>127</ele>
        <time>2012-06-14T10:48:11Z</time>
      </trkpt>
      <trkpt lat="48.60422" lon="-3.44809">
        <ele>125.1</ele>
        <time>2012-06-14T10:48:11Z</time>
      </trkpt>
      <trkpt lat="48.60467" lon="-3.44818">
        <ele>125.9</ele>
        <time>2012-06-14T10:48:11Z</time>
      </trkpt>
      <trkpt lat="48.60513" lon="-3.44824">
        <ele>125.5</ele>
        <time>2012-06-14T10:48:11Z</time>
      </trkpt>
      <trkpt lat="48.6055" lon="-3.44836">
        <ele>124.3</ele>
        <time>2012-06-14T10:48:11Z</time>
      </trkpt>
      <trkpt lat="48.60592" lon="-3.44841">
        <ele>123.7</ele>
        <time>2012-06-14T10:48:11Z</time>
      </trkpt>
      <trkpt lat="48.60633" lon="-3.44853">
        <ele>123</ele>
        <time>2012-06-14T10:48:11Z</time>
      </trkpt>
      <trkpt lat="48.60679" lon="-3.44859">
        <ele>122.6</ele>
        <time>2012-06-14T10:48:11Z</time>
      </trkpt>
      <trkpt lat="48.60682" lon="-3.44858">
        <ele>122.5</ele>
        <time>2012-06-14T10:48:11Z</time>
      </trkpt>
      <trkpt lat="48.60685" lon="-3.44858">
        <ele>122.3</ele>
        <time>2012-06-14T10:48:11Z</time>
      </trkpt>
      <trkpt lat="48.60687" lon="-3.44858">
        <ele>122.3</ele>
        <time>2012-06-14T10:48:11Z</time>
      </trkpt>
      <trkpt lat="48.60688" lon="-3.4486">
        <ele>122.2</ele>
        <time>2012-06-14T10:48:11Z</time>
      </trkpt>
      <trkpt lat="48.60688" lon="-3.44862">
        <ele>122.2</ele>
        <time>2012-06-14T10:48:11Z</time>
      </trkpt>
      <trkpt lat="48.60687" lon="-3.44864">
        <ele>122.3</ele>
        <time>2012-06-14T10:48:11Z</time>
      </trkpt>
      <trkpt lat="48.60688" lon="-3.44866">
        <ele>122.2</ele>
        <time>2012-06-14T10:48:11Z</time>
      </trkpt>
      <trkpt lat="48.60688" lon="-3.44869">
        <ele>122.2</ele>
        <time>2012-06-14T10:48:11Z</time>
      </trkpt>
      <trkpt lat="48.60688" lon="-3.44871">
        <ele>122.2</ele>
        <time>2012-06-14T10:48:11Z</time>
      </trkpt>
      <trkpt lat="48.60687" lon="-3.44874">
        <ele>122.3</ele>
        <time>2012-06-14T10:48:11Z</time>
      </trkpt>
      <trkpt lat="48.60687" lon="-3.44876">
        <ele>122.3</ele>
        <time>2012-06-14T10:48:11Z</time>
      </trkpt>
      <trkpt lat="48.60688" lon="-3.44878">
        <ele>122.2</ele>
        <time>2012-06-14T10:48:11Z</time>
      </trkpt>
      <trkpt lat="48.60689" lon="-3.4488">
        <ele>122.2</ele>
        <time>2012-06-14T10:48:11Z</time>
      </trkpt>
      <trkpt lat="48.60691" lon="-3.44882">
        <ele>122.1</ele>
        <time>2012-06-14T10:48:11Z</time>
      </trkpt>
      <trkpt lat="48.60692" lon="-3.44884">
        <ele>122.1</ele>
        <time>2012-06-14T10:48:11Z</time>
      </trkpt>
      <trkpt lat="48.60694" lon="-3.44886">
        <ele>122</ele>
        <time>2012-06-14T10:48:11Z</time>
      </trkpt>
      <trkpt lat="48.60696" lon="-3.44888">
        <ele>122</ele>
        <time>2012-06-14T10:48:11Z</time>
      </trkpt>
      <trkpt lat="48.60698" lon="-3.44889">
        <ele>122</ele>
        <time>2012-06-14T10:48:11Z</time>
      </trkpt>
      <trkpt lat="48.60699" lon="-3.44891">
        <ele>122</ele>
        <time>2012-06-14T10:48:11Z</time>
      </trkpt>
      <trkpt lat="48.60701" lon="-3.44892">
        <ele>122</ele>
        <time>2012-06-14T10:48:11Z</time>
      </trkpt>
      <trkpt lat="48.60703" lon="-3.44894">
        <ele>122</ele>
        <time>2012-06-14T10:48:11Z</time>
      </trkpt>
      <trkpt lat="48.60705" lon="-3.44896">
        <ele>122</ele>
        <time>2012-06-14T10:48:11Z</time>
      </trkpt>
      <trkpt lat="48.60706" lon="-3.44897">
        <ele>122</ele>
        <time>2012-06-14T10:48:11Z</time>
      </trkpt>
    </trkseg>
  </trk>
</gpx>